Morris, MN

3:51 AM CDT on March 25, 2017 (GMT -0500)
Morris Municipal

Weather History for KMOX - May, 2009

Change the Weather History Date:

Tuesday, May 12, 2009

  Actual Average Record
Temperature  
Mean Temperature - -  
Max Temperature - 63 °F 75 °F (2007)
Min Temperature - 40 °F 24 °F (2013)
Moisture  
Dew Point -    
Average Humidity    
Maximum Humidity    
Minimum Humidity    
Precipitation  
Precipitation 0.00 in - - ()
Wind  
Wind Speed - (North)    
Max Wind Speed -    
Max Gust Speed -    
Averages and records for this station are not official NWS values.
T = Trace of Precipitation, MM = Missing Value Source: NWS Daily Summary

Daily Weather History Graph

Daily Weather History Graph

Search for Another Location

Airport or City:

Trip Planner

Search our weather history database for the weather conditions in past years. The results will help you decide how hot, cold, wet, or windy it might be!

Date:

Astronomy

May. 12, 2009 Rise Set
Actual Time 5:56 AM CDT 8:44 PM CDT
Civil Twilight 5:22 AM CDT 9:19 PM CDT
Nautical Twilight 4:38 AM CDT 10:03 PM CDT
Astronomical Twilight 3:47 AM CDT 10:54 PM CDT
Moon No Moon Rise 8:01 AM CDT (5/12)
Length of Visible Light 15h 57m
Length of Day
14h 48m
Waning Gibbous, 88% of the Moon is Illuminated
May 12
Waning Gibbous
May 17
Last Quarter
May 24
New
May 30
First Quarter
Jun 7
Full

Hourly Weather History & Observations

Time (CDT) Temp. Dew Point Humidity Pressure Visibility Wind Dir Wind Speed Gust Speed Precip Events Conditions
12:14 AM 48.2 °F 37.4 °F 66% 29.91 in 10.0 mi SE 9.2 mph - N/A   Scattered Clouds
12:34 AM 48.2 °F 37.4 °F 66% 29.91 in 10.0 mi SSE 10.4 mph - N/A   Clear
12:54 AM 50.0 °F 37.4 °F 62% 29.91 in 10.0 mi SSE 10.4 mph - N/A   Clear
1:14 AM 50.0 °F 37.4 °F 62% 29.90 in 10.0 mi SSE 11.5 mph - N/A   Scattered Clouds
1:34 AM 50.0 °F 37.4 °F 62% 29.89 in 10.0 mi SSE 11.5 mph - N/A Thunderstorm Scattered Clouds
1:54 AM 51.8 °F 39.2 °F 62% 29.89 in 10.0 mi SSE 11.5 mph - N/A   Mostly Cloudy
2:13 AM 51.8 °F 39.2 °F 62% 29.88 in 10.0 mi SSE 11.5 mph - N/A   Mostly Cloudy
2:34 AM 50.0 °F 39.2 °F 66% 29.88 in 10.0 mi SSE 10.4 mph - N/A   Scattered Clouds
2:54 AM 51.8 °F 41.0 °F 67% 29.87 in 10.0 mi SSE 12.7 mph - N/A   Mostly Cloudy
3:14 AM 51.8 °F 41.0 °F 67% 29.87 in 10.0 mi SSE 11.5 mph - N/A   Scattered Clouds
3:34 AM 51.8 °F 42.8 °F 71% 29.87 in 10.0 mi SSE 10.4 mph - N/A   Scattered Clouds
3:54 AM 51.8 °F 42.8 °F 71% 29.87 in 10.0 mi South 11.5 mph - N/A   Scattered Clouds
4:14 AM 51.8 °F 42.8 °F 71% 29.87 in 10.0 mi SSE 11.5 mph - N/A   Clear
4:34 AM 50.0 °F 42.8 °F 76% 29.86 in 10.0 mi SSE 13.8 mph - N/A   Clear
4:54 AM 51.8 °F 42.8 °F 71% 29.86 in 10.0 mi SSE 15.0 mph - N/A   Clear
5:14 AM 51.8 °F 42.8 °F 71% 29.86 in 10.0 mi SSE 15.0 mph - N/A   Clear
5:34 AM 50.0 °F 42.8 °F 76% 29.85 in 10.0 mi SSE 12.7 mph - N/A   Clear
5:54 AM 50.0 °F 42.8 °F 76% 29.85 in 10.0 mi SSE 13.8 mph - N/A   Clear
6:14 AM 48.2 °F 42.8 °F 82% 29.84 in 10.0 mi SSE 11.5 mph - N/A   Clear
6:34 AM 50.0 °F 42.8 °F 76% 29.84 in 10.0 mi SSE 13.8 mph - N/A Thunderstorm Thunderstorm
7:14 AM 53.6 °F 44.6 °F 72% 29.84 in 10.0 mi SSE 15.0 mph - N/A   Clear
7:34 AM 53.6 °F 44.6 °F 72% 29.83 in 10.0 mi SSE 15.0 mph - N/A   Clear
7:54 AM 53.6 °F 44.6 °F 72% 29.83 in 10.0 mi SSE 16.1 mph - N/A   Clear
8:34 AM 55.4 °F 46.4 °F 72% 29.84 in 10.0 mi SSE 13.8 mph 20.7 mph N/A   Mostly Cloudy
8:53 AM 55.4 °F 46.4 °F 72% 29.83 in 10.0 mi SSE 11.5 mph - N/A   Overcast
9:14 AM 57.2 °F 46.4 °F 67% 29.83 in 10.0 mi SSE 15.0 mph - N/A   Overcast
9:34 AM 60.8 °F 48.2 °F 63% 29.81 in 10.0 mi SSE 18.4 mph 23.0 mph N/A   Overcast
9:54 AM 60.8 °F 48.2 °F 63% 29.80 in 10.0 mi South 21.9 mph 28.8 mph N/A   Overcast
10:14 AM 62.6 °F 48.2 °F 59% 29.78 in 10.0 mi SSE 20.7 mph 24.2 mph N/A   Overcast
10:34 AM 64.4 °F 48.2 °F 56% 29.76 in 10.0 mi South 26.5 mph 34.5 mph N/A   Overcast
10:53 AM 64.4 °F 48.2 °F 56% 29.75 in 10.0 mi South 27.6 mph 34.5 mph N/A   Overcast
11:14 AM 64.4 °F 50.0 °F 59% 29.73 in 10.0 mi South 26.5 mph 38.0 mph N/A   Overcast
11:34 AM 64.4 °F 50.0 °F 59% 29.71 in 10.0 mi South 29.9 mph 36.8 mph N/A   Overcast
11:53 AM 64.4 °F 48.2 °F 56% 29.70 in 10.0 mi South 34.5 mph 41.4 mph N/A Thunderstorm Overcast
12:14 PM 64.4 °F 50.0 °F 59% 29.69 in 10.0 mi South 32.2 mph 40.3 mph N/A   Overcast
12:34 PM 64.4 °F 48.2 °F 56% 29.69 in 10.0 mi South 33.4 mph 41.4 mph N/A   Overcast
12:54 PM 66.2 °F 50.0 °F 56% 29.66 in 10.0 mi South 34.5 mph 38.0 mph N/A   Overcast
1:14 PM 66.2 °F 50.0 °F 56% 29.64 in 10.0 mi South 36.8 mph 42.6 mph N/A   Overcast
1:33 PM 68.0 °F 50.0 °F 52% 29.64 in 10.0 mi South 34.5 mph 42.6 mph N/A   Mostly Cloudy
1:54 PM 69.8 °F 51.8 °F 53% 29.63 in 10.0 mi South 32.2 mph 41.4 mph N/A   Scattered Clouds
2:13 PM 68.0 °F 50.0 °F 52% 29.63 in 10.0 mi South 34.5 mph 41.4 mph N/A   Mostly Cloudy
2:34 PM 69.8 °F 50.0 °F 49% 29.63 in 10.0 mi South 31.1 mph 38.0 mph N/A   Mostly Cloudy
2:54 PM 69.8 °F 50.0 °F 49% 29.63 in 10.0 mi South 26.5 mph 35.7 mph N/A   Overcast
3:14 PM 69.8 °F 50.0 °F 49% 29.62 in 10.0 mi South 28.8 mph 35.7 mph N/A   Overcast
3:34 PM 68.0 °F 50.0 °F 52% 29.61 in 10.0 mi South 26.5 mph 34.5 mph N/A   Overcast
3:54 PM 66.2 °F 51.8 °F 60% 29.61 in 10.0 mi South 25.3 mph 32.2 mph N/A   Overcast
4:14 PM 66.2 °F 51.8 °F 60% 29.58 in 10.0 mi South 21.9 mph 26.5 mph N/A   Overcast
4:34 PM 66.2 °F 51.8 °F 60% 29.57 in 10.0 mi South 23.0 mph 34.5 mph N/A   Overcast
4:54 PM 66.2 °F 51.8 °F 60% 29.56 in 10.0 mi South 23.0 mph 34.5 mph N/A   Overcast
5:14 PM 66.2 °F 51.8 °F 60% 29.55 in 10.0 mi South 25.3 mph 31.1 mph N/A   Overcast
5:34 PM 66.2 °F 51.8 °F 60% 29.55 in 10.0 mi South 20.7 mph 29.9 mph N/A   Overcast
5:54 PM 66.2 °F 51.8 °F 60% 29.54 in 10.0 mi South 26.5 mph 33.4 mph N/A   Overcast
6:14 PM 66.2 °F 51.8 °F 60% 29.54 in 10.0 mi South 21.9 mph 27.6 mph N/A   Overcast
6:34 PM 66.2 °F 51.8 °F 60% 29.53 in 10.0 mi South 27.6 mph 34.5 mph N/A   Overcast
6:54 PM 66.2 °F 53.6 °F 64% 29.53 in 10.0 mi South 31.1 mph 40.3 mph N/A   Overcast
7:14 PM 66.2 °F 53.6 °F 64% 29.54 in 10.0 mi South 29.9 mph 36.8 mph N/A   Overcast
7:33 PM 64.4 °F 53.6 °F 68% 29.55 in 10.0 mi South 25.3 mph 34.5 mph N/A   Overcast
7:54 PM 64.4 °F 53.6 °F 68% 29.53 in 10.0 mi South 21.9 mph 31.1 mph N/A   Overcast
8:14 PM 64.4 °F 53.6 °F 68% 29.51 in 10.0 mi South 24.2 mph 29.9 mph N/A   Overcast
8:34 PM 64.4 °F 53.6 °F 68% 29.51 in 10.0 mi South 24.2 mph 32.2 mph N/A   Overcast
8:54 PM 62.6 °F 53.6 °F 72% 29.51 in 10.0 mi South 19.6 mph 28.8 mph N/A   Overcast
9:14 PM 62.6 °F 53.6 °F 72% 29.51 in 10.0 mi South 24.2 mph 28.8 mph N/A   Overcast
9:33 PM 62.6 °F 53.6 °F 72% 29.51 in 10.0 mi South 21.9 mph 33.4 mph N/A   Overcast
9:54 PM 62.6 °F 53.6 °F 72% 29.50 in 10.0 mi South 21.9 mph 32.2 mph N/A   Overcast
10:14 PM 60.8 °F 53.6 °F 77% 29.50 in 10.0 mi South 21.9 mph 29.9 mph N/A   Overcast
10:34 PM 60.8 °F 53.6 °F 77% 29.53 in 10.0 mi South 23.0 mph 28.8 mph N/A   Overcast
10:54 PM 60.8 °F 53.6 °F 77% 29.54 in 10.0 mi South 17.3 mph 26.5 mph N/A   Overcast
11:14 PM 60.8 °F 53.6 °F 77% 29.54 in 10.0 mi South 19.6 mph 25.3 mph N/A   Overcast
11:34 PM 60.8 °F 53.6 °F 77% 29.53 in 10.0 mi South 17.3 mph 24.2 mph N/A   Overcast
11:54 PM 60.8 °F 55.4 °F 82% 29.53 in 10.0 mi South 17.3 mph - N/A Rain Light Rain